Location: Downe
(51.3167°N, 0.0500°E)
Time: 03:07:43
(UTC+00:00)

Lacrosse 5 - Pass Details

Date: 17 November 2019
Orbit: 715 x 724 km, 57.0° (Epoch: 04 December)

Event Time Altitude Azimuth Distance (km) Brightness Sun altitude
Exits shadow 03:03:26 17° 84° (E) 1,790 4.4 -39.4°
Drops below altitude 10° 03:04:49 10° 73° (ENE) 2,205 5.1 -39.2°
Sets 03:07:28 0° 62° (ENE) 3,128 6.1 -38.8°
